Погода в Колодня

Россия / Брянская область     53°07′18″N   33°35′06″E
темп.,
°C
ветер,
м/с
пор.,
м/с
влажн.,
%
обл.,
%
осадки,
мм/ч
давл.,
гПа
погр.,
м
17 апреля, сб
сб1700:00+6вюв34905 0.0 101685
03:00+5в35935 0.1 101790
06:00+4вюв24945 0.0 101877
09:00+8вюв247726 0.0 1019450
12:00+11ю2263100 0.1 10181124
15:00+7юз5693100 6.3 1018421
18:00+6юз61092100 5.4 1015603
21:00+5ю61192100 7.8 1015481
18 апреля, вс
вс1800:00+5ююв61091100 1.3 1016779
03:00+5ююв3692100 1.5 1017791
06:00+5в369115 0.3 1017238
09:00+7вюв577477 0.3 10181019
12:00+10вюв465991 0.3 10171606
15:00+9в456389 0.6 10181185
18:00+9ююв336845 0.3 1018581
21:00+6вюв118513 0.4 101916
19 апреля, пн
пн1900:00+4всв249176 0.0 1019111
03:00+5св4992100 0.0 1018298
06:00+5св61093100 0.3 1018445
09:00+6всв61090100 0.3 1018675
12:00+7всв6990100 0.1 1018943
15:00+8всв7881100 0.2 1018876
18:00+8всв6984100 0.0 1017789
21:00+7всв51095100 6.1 1016835
20 апреля, вт
вт2000:00+6всв7139092 4.2 1015625
03:00+7всв71390100 4.3 1013467
06:00+7всв61190100 0.1 1012678
09:00+7всв61191100 0.1 1011617
12:00+6св71290100 0.0 1009602
15:00+5ссв71393100 1.7 1004634
18:00+5ссв81495100 7.1 999848
21:00+4ссз91496100 15.1 994640
21 апреля, ср
ср2100:00+3зсз71296100 8.4 992476
03:00+1зюз81497100 12.7 994499
06:00+2зюз81497100 1.3 997860
09:00+4юз91594100 1.5 10001287
12:00+5юз81394100 0.3 10041043
15:00+9юз8137162 0.6 10061501
18:00+10юз6117097 0.4 10091228
21:00+6ююз41088100 0.5 1012212